Regional Weather Roundup
Issued by NWS Albany, NY

Home | Current Version | Previous Version | Text Only | Print | Product List | Glossary On
Versions: 1 2 3 4 5 6 7 8 9 10 11 12 13 14 15 16 17 18 19 20 21 22 23 24 25 26 27 28
000
ASUS41 KALY 161110
RWRALY

NEW YORK STATE HOURLY WEATHER ROUNDUP
NATIONAL WEATHER SERVICE ALBANY NY
600 AM EST MON JAN 16 2017

NOTE: "FAIR" INDICATES FEW OR NO CLOUDS BELOW 12,000 FEET WITH NO
SIGNIFICANT WEATHER AND/OR NO OBSTRUCTIONS TO VISIBILITY.

NYZ032-033-038>043-046>054-057>066-NYZ062>081-082-084-161200-
EAST


CITY           SKY/WX    TMP DP  RH WIND       PRES   REMARKS
ALBANY         CLEAR     15  10  80 CALM      30.43S
GLENS FALLS    CLEAR     11   5  77 CALM      30.41F
POUGHKEEPSIE   CLEAR     14  11  87 CALM      30.44S
MONTGOMERY     CLEAR     14  11  87 CALM      30.42S
WHITE PLAINS   CLEAR     21  15  78 NW5       30.42R WCI  15
ISLIP          CLEAR     23  19  85 CALM      30.43S
NEW YORK CITY  CLEAR     32  18  56 N5        30.45R WCI  27
CENTRAL PARK   CLEAR     30  17  58 N5        30.46R WCI  25
$$

NYZ005>009-017-018-044>046-055-056-161200-
CENTRAL


CITY           SKY/WX    TMP DP  RH WIND       PRES   REMARKS
FULTON         CLEAR     18  16  92 CALM      30.37S
SYRACUSE       CLEAR     20  16  84 E3        30.37R
ROME           CLEAR     18  16  92 SE3       30.40F
ELMIRA         CLOUDY    12   7  80 CALM      30.38S
BINGHAMTON     CLEAR     19  15  84 SW6       30.32S WCI  11
MONTICELLO     CLEAR     12  10  92 CALM      30.37S
$$

NYZ026>034-041>043-087-161200-
NORTH


CITY           SKY/WX    TMP DP  RH WIND       PRES   REMARKS
WATERTOWN      CLEAR     26  19  74 S6        30.35R WCI  19
FORT DRUM      NOT AVBL
OGDENSBURG     CLOUDY    24  22  92 MISG      30.32R
MASSENA        CLOUDY    24  19  81 S6        30.33F WCI  17
SARANAC LAKE   CLOUDY    14  10  84 MISG      30.25S
PLATTSBURGH    PTCLDY    16   8  71 S8        30.35S WCI   5
$$

NYZ001>004-010>016-019>021-085-161200-
WEST


CITY           SKY/WX    TMP DP  RH WIND       PRES   REMARKS
NIAGARA FALLS  CLOUDY    23  17  78 SW3       30.35R
BUFFALO        CLOUDY    19  15  84 S7        30.35S WCI  10
DUNKIRK        CLEAR     25  18  74 SW8       30.37R WCI  16
JAMESTOWN      CLOUDY    19  16  86 CALM      30.30R
WELLSVILLE     CLOUDY    23  16  74 SW8       30.30R WCI  14
ROCHESTER      CLEAR     22  17  81 SW7       30.36S WCI  13
PENN YAN       CLEAR     22  17  81 SW9       30.35R WCI  12
$$

             KEY
       WCI = WIND CHILL INDEX
       VSB = VISIBILITY
       HX  = HEAT INDEX
$$




USA.gov is the U.S. government's official web portal to all federal, state and local government web resources and services.